Wetterdaten: Freitag, 14.05.2021
Datum Zeit Temp. Auen Feucht Auen Luftdruck Regen Richtung Richtung Windben
14.05.2021 00:00 8,8 C 91 % 1008,6 hPa 0,0 mm W 275 12,9 km/h (3 Bft)
14.05.2021 00:05 8,8 C 91 % 1008,6 hPa 0,0 mm W 269 11,3 km/h (2 Bft)
14.05.2021 00:10 8,7 C 91 % 1008,6 hPa 0,0 mm W 270 9,7 km/h (2 Bft)
14.05.2021 00:15 8,7 C 91 % 1008,6 hPa 0,0 mm W 263 9,7 km/h (2 Bft)
14.05.2021 00:20 8,7 C 91 % 1008,7 hPa 0,2 mm W-NW 284 9,7 km/h (2 Bft)
14.05.2021 00:25 8,7 C 91 % 1008,7 hPa 0,0 mm W-NW 298 8,0 km/h (2 Bft)
14.05.2021 00:30 8,7 C 91 % 1008,7 hPa 0,0 mm W-NW 296 9,7 km/h (2 Bft)
14.05.2021 00:35 8,7 C 91 % 1008,7 hPa 0,0 mm W 267 12,9 km/h (3 Bft)
14.05.2021 00:40 8,7 C 91 % 1008,7 hPa 0,0 mm W 264 14,5 km/h (3 Bft)
14.05.2021 00:45 8,6 C 91 % 1008,8 hPa 0,0 mm W 265 9,7 km/h (2 Bft)
14.05.2021 00:50 8,6 C 91 % 1008,8 hPa 0,0 mm W 273 9,7 km/h (2 Bft)
14.05.2021 00:55 8,6 C 91 % 1008,6 hPa 0,0 mm W 260 9,7 km/h (2 Bft)
14.05.2021 01:00 8,6 C 91 % 1008,6 hPa 0,0 mm W 263 11,3 km/h (2 Bft)
14.05.2021 01:05 8,6 C 91 % 1008,6 hPa 0,0 mm W 267 9,7 km/h (2 Bft)
14.05.2021 01:10 8,6 C 91 % 1008,6 hPa 0,0 mm W 268 12,9 km/h (3 Bft)
14.05.2021 01:15 8,6 C 91 % 1008,6 hPa 0,0 mm W 260 9,7 km/h (2 Bft)
14.05.2021 01:20 8,6 C 91 % 1008,7 hPa 0,0 mm W 273 14,5 km/h (3 Bft)
14.05.2021 01:25 8,5 C 91 % 1008,7 hPa 0,0 mm W 272 9,7 km/h (2 Bft)
14.05.2021 01:30 8,5 C 91 % 1008,7 hPa 0,0 mm W 264 8,0 km/h (2 Bft)
14.05.2021 01:35 8,5 C 91 % 1008,7 hPa 0,0 mm W 271 9,7 km/h (2 Bft)
14.05.2021 01:40 8,5 C 91 % 1008,7 hPa 0,0 mm W 264 8,0 km/h (2 Bft)
14.05.2021 01:45 8,5 C 91 % 1008,7 hPa 0,0 mm W-NW 286 8,0 km/h (2 Bft)
14.05.2021 01:50 8,5 C 91 % 1008,7 hPa 0,2 mm W 266 9,7 km/h (2 Bft)
14.05.2021 01:55 8,4 C 92 % 1008,6 hPa 0,0 mm W 266 9,7 km/h (2 Bft)
14.05.2021 02:00 8,4 C 92 % 1008,7 hPa 0,0 mm W 272 8,0 km/h (2 Bft)
14.05.2021 02:05 8,4 C 92 % 1008,6 hPa 0,0 mm W-NW 290 9,7 km/h (2 Bft)
14.05.2021 02:10 8,4 C 92 % 1008,6 hPa 0,0 mm W 269 9,7 km/h (2 Bft)
14.05.2021 02:15 8,4 C 92 % 1008,7 hPa 0,0 mm W 281 11,3 km/h (2 Bft)
14.05.2021 02:20 8,4 C 92 % 1008,6 hPa 0,0 mm W 279 11,3 km/h (2 Bft)
14.05.2021 02:25 8,3 C 92 % 1008,7 hPa 0,0 mm W 274 11,3 km/h (2 Bft)
14.05.2021 02:30 8,3 C 92 % 1008,6 hPa 0,0 mm W-NW 282 8,0 km/h (2 Bft)
14.05.2021 02:35 8,3 C 92 % 1008,7 hPa 0,0 mm W 261 12,9 km/h (3 Bft)
14.05.2021 02:40 8,3 C 92 % 1008,6 hPa 0,0 mm W-SW 240 12,9 km/h (3 Bft)
14.05.2021 02:45 8,3 C 92 % 1008,7 hPa 0,0 mm W-NW 282 14,5 km/h (3 Bft)
14.05.2021 02:50 8,3 C 92 % 1008,7 hPa 0,0 mm W-SW 257 11,3 km/h (2 Bft)
14.05.2021 02:55 8,3 C 92 % 1008,8 hPa 0,0 mm W-SW 248 14,5 km/h (3 Bft)
14.05.2021 03:00 8,3 C 92 % 1008,8 hPa 0,0 mm W 271 11,3 km/h (2 Bft)
14.05.2021 03:05 8,2 C 92 % 1008,8 hPa 0,0 mm W 281 12,9 km/h (3 Bft)
14.05.2021 03:10 8,2 C 92 % 1008,7 hPa 0,0 mm W 269 11,3 km/h (2 Bft)
14.05.2021 03:15 8,2 C 92 % 1008,8 hPa 0,0 mm W 269 11,3 km/h (2 Bft)
14.05.2021 03:20 8,2 C 92 % 1008,8 hPa 0,0 mm W 271 14,5 km/h (3 Bft)
14.05.2021 03:25 8,1 C 92 % 1008,8 hPa 0,2 mm W-NW 284 12,9 km/h (3 Bft)
14.05.2021 03:30 8,1 C 92 % 1008,7 hPa 0,0 mm W 273 11,3 km/h (2 Bft)
14.05.2021 03:35 8,1 C 92 % 1008,7 hPa 0,0 mm W 259 14,5 km/h (3 Bft)
14.05.2021 03:40 8,0 C 92 % 1008,8 hPa 0,0 mm W 271 11,3 km/h (2 Bft)
14.05.2021 03:45 8,0 C 92 % 1008,8 hPa 0,0 mm W 277 11,3 km/h (2 Bft)
14.05.2021 03:50 8,0 C 92 % 1008,9 hPa 0,0 mm W 276 12,9 km/h (3 Bft)
14.05.2021 03:55 8,0 C 92 % 1008,9 hPa 0,0 mm W 277 9,7 km/h (2 Bft)
14.05.2021 04:00 8,0 C 92 % 1008,8 hPa 0,0 mm W 279 8,0 km/h (2 Bft)
14.05.2021 04:05 7,9 C 92 % 1008,9 hPa 0,2 mm W 281 6,4 km/h (2 Bft)
14.05.2021 04:10 7,9 C 92 % 1008,9 hPa 0,0 mm W 280 8,0 km/h (2 Bft)
14.05.2021 04:15 7,9 C 92 % 1008,8 hPa 0,0 mm W 275 8,0 km/h (2 Bft)
14.05.2021 04:20 7,8 C 91 % 1008,8 hPa 0,0 mm W 276 11,3 km/h (2 Bft)
14.05.2021 04:25 7,8 C 91 % 1008,8 hPa 0,0 mm W 261 20,9 km/h (4 Bft)
14.05.2021 04:30 7,8 C 92 % 1008,9 hPa 0,0 mm W-NW 288 11,3 km/h (2 Bft)
14.05.2021 04:35 7,7 C 92 % 1008,9 hPa 0,0 mm W 279 11,3 km/h (2 Bft)
14.05.2021 04:40 7,7 C 92 % 1008,9 hPa 0,0 mm W 265 9,7 km/h (2 Bft)
14.05.2021 04:45 7,7 C 92 % 1008,9 hPa 0,0 mm W-NW 284 14,5 km/h (3 Bft)
14.05.2021 04:50 7,7 C 92 % 1008,9 hPa 0,0 mm NW 305 11,3 km/h (2 Bft)
14.05.2021 04:55 7,7 C 92 % 1008,9 hPa 0,0 mm W 277 11,3 km/h (2 Bft)
14.05.2021 05:00 7,7 C 92 % 1008,9 hPa 0,0 mm W 278 9,7 km/h (2 Bft)
14.05.2021 05:05 7,7 C 92 % 1008,9 hPa 0,0 mm W 264 14,5 km/h (3 Bft)
14.05.2021 05:10 7,7 C 91 % 1008,9 hPa 0,0 mm W 276 8,0 km/h (2 Bft)
14.05.2021 05:15 7,7 C 91 % 1008,9 hPa 0,0 mm W 274 8,0 km/h (2 Bft)
14.05.2021 05:20 7,7 C 91 % 1009,0 hPa 0,0 mm W 271 6,4 km/h (2 Bft)
14.05.2021 05:25 7,7 C 91 % 1009,0 hPa 0,0 mm W-NW 289 8,0 km/h (2 Bft)
14.05.2021 05:30 7,7 C 91 % 1009,0 hPa 0,0 mm W-NW 288 6,4 km/h (2 Bft)
14.05.2021 05:35 7,7 C 91 % 1009,0 hPa 0,0 mm W-NW 288 4,8 km/h (1 Bft)
14.05.2021 05:40 7,7 C 91 % 1009,0 hPa 0,0 mm W-NW 288 4,8 km/h (1 Bft)
14.05.2021 05:45 7,7 C 91 % 1009,1 hPa 0,0 mm W-NW 288 3,2 km/h (1 Bft)
14.05.2021 05:50 7,7 C 91 % 1009,1 hPa 0,0 mm W-NW 288 4,8 km/h (1 Bft)
14.05.2021 05:55 7,7 C 91 % 1009,1 hPa 0,0 mm W-NW 288 4,8 km/h (1 Bft)
14.05.2021 06:00 7,7 C 91 % 1009,1 hPa 0,0 mm W 278 8,0 km/h (2 Bft)
14.05.2021 06:05 7,7 C 91 % 1009,1 hPa 0,0 mm W 278 4,8 km/h (1 Bft)
14.05.2021 06:10 7,7 C 91 % 1009,1 hPa 0,0 mm W 278 3,2 km/h (1 Bft)
14.05.2021 06:15 7,7 C 91 % 1009,2 hPa 0,0 mm W 278 4,8 km/h (1 Bft)
14.05.2021 06:20 7,7 C 91 % 1009,2 hPa 0,0 mm W 278 4,8 km/h (1 Bft)
14.05.2021 06:25 7,7 C 91 % 1009,2 hPa 0,0 mm W 278 4,8 km/h (1 Bft)
14.05.2021 06:30 7,7 C 91 % 1009,2 hPa 0,0 mm W 278 4,8 km/h (1 Bft)
14.05.2021 06:35 7,7 C 91 % 1009,3 hPa 0,0 mm W 278 3,2 km/h (1 Bft)
14.05.2021 06:40 7,7 C 91 % 1009,3 hPa 0,0 mm W 278 3,2 km/h (1 Bft)
14.05.2021 06:45 7,7 C 91 % 1009,3 hPa 0,0 mm W 278 4,8 km/h (1 Bft)
14.05.2021 06:50 7,7 C 91 % 1009,3 hPa 0,0 mm W 278 4,8 km/h (1 Bft)
14.05.2021 06:55 7,7 C 91 % 1009,4 hPa 0,0 mm W 278 3,2 km/h (1 Bft)
14.05.2021 07:00 7,7 C 91 % 1009,3 hPa 0,0 mm W 278 0,0 km/h (0 Bft)
14.05.2021 07:05 7,7 C 91 % 1009,3 hPa 0,0 mm W 278 0,0 km/h (0 Bft)
14.05.2021 07:10 7,7 C 91 % 1009,3 hPa 0,0 mm W 278 0,0 km/h (0 Bft)
14.05.2021 07:15 7,8 C 91 % 1009,3 hPa 0,0 mm W 278 0,0 km/h (0 Bft)
14.05.2021 07:20 7,8 C 91 % 1009,4 hPa 0,0 mm W 278 0,0 km/h (0 Bft)
14.05.2021 07:25 7,8 C 91 % 1009,4 hPa 0,0 mm W 278 0,0 km/h (0 Bft)
14.05.2021 07:30 7,9 C 91 % 1009,4 hPa 0,0 mm W 278 3,2 km/h (1 Bft)
14.05.2021 07:35 8,0 C 92 % 1009,4 hPa 0,0 mm W 278 3,2 km/h (1 Bft)
14.05.2021 07:40 8,1 C 92 % 1009,5 hPa 0,0 mm W 278 1,6 km/h (1 Bft)
14.05.2021 07:45 8,1 C 91 % 1009,5 hPa 0,0 mm W 278 0,0 km/h (0 Bft)
14.05.2021 07:50 8,2 C 91 % 1009,6 hPa 0,0 mm W 278 0,0 km/h (0 Bft)
14.05.2021 07:55 8,4 C 92 % 1009,5 hPa 0,0 mm W 278 0,0 km/h (0 Bft)
14.05.2021 08:00 8,7 C 91 % 1009,5 hPa 0,0 mm W 278 1,6 km/h (1 Bft)
14.05.2021 08:05 9,0 C 91 % 1009,7 hPa 0,0 mm W 278 1,6 km/h (1 Bft)
14.05.2021 08:10 9,1 C 90 % 1009,7 hPa 0,0 mm W 278 0,0 km/h (0 Bft)
14.05.2021 08:15 9,5 C 90 % 1009,6 hPa 0,0 mm W 278 0,0 km/h (0 Bft)
14.05.2021 08:20 9,8 C 89 % 1009,6 hPa 0,0 mm W 278 0,0 km/h (0 Bft)
14.05.2021 08:25 10,2 C 89 % 1009,6 hPa 0,0 mm W 278 0,0 km/h (0 Bft)
14.05.2021 08:30 10,3 C 87 % 1009,7 hPa 0,0 mm W 269 12,9 km/h (3 Bft)
14.05.2021 08:35 10,4 C 85 % 1009,7 hPa 0,0 mm W 278 9,7 km/h (2 Bft)
14.05.2021 08:40 10,8 C 83 % 1009,7 hPa 0,0 mm W-SW 252 8,0 km/h (2 Bft)
14.05.2021 08:45 11,1 C 81 % 1009,7 hPa 0,0 mm W 277 9,7 km/h (2 Bft)
14.05.2021 08:50 11,6 C 80 % 1009,7 hPa 0,0 mm W 276 8,0 km/h (2 Bft)
14.05.2021 08:55 11,9 C 76 % 1009,7 hPa 0,0 mm W 268 11,3 km/h (2 Bft)
14.05.2021 09:00 12,0 C 75 % 1009,7 hPa 0,0 mm W 271 12,9 km/h (3 Bft)
14.05.2021 09:05 12,4 C 73 % 1009,7 hPa 0,0 mm W 269 14,5 km/h (3 Bft)
14.05.2021 09:10 12,6 C 70 % 1009,7 hPa 0,0 mm W 275 17,7 km/h (3 Bft)
14.05.2021 09:15 12,7 C 69 % 1009,7 hPa 0,0 mm W 259 17,7 km/h (3 Bft)
14.05.2021 09:20 13,0 C 71 % 1009,7 hPa 0,0 mm W-NW 290 12,9 km/h (3 Bft)
14.05.2021 09:25 13,3 C 66 % 1009,7 hPa 0,0 mm W 265 14,5 km/h (3 Bft)
14.05.2021 09:30 13,3 C 67 % 1009,5 hPa 0,0 mm W 274 17,7 km/h (3 Bft)
14.05.2021 09:35 13,4 C 67 % 1009,6 hPa 0,0 mm W 266 19,3 km/h (3 Bft)
14.05.2021 09:40 13,7 C 67 % 1009,6 hPa 0,0 mm W 264 19,3 km/h (3 Bft)
14.05.2021 09:45 14,2 C 63 % 1009,6 hPa 0,0 mm W 267 17,7 km/h (3 Bft)
14.05.2021 09:50 14,4 C 64 % 1009,7 hPa 0,0 mm W-NW 295 17,7 km/h (3 Bft)
14.05.2021 09:55 14,4 C 65 % 1009,7 hPa 0,0 mm W-NW 292 16,1 km/h (3 Bft)
14.05.2021 10:00 14,3 C 61 % 1009,6 hPa 0,0 mm W 260 20,9 km/h (4 Bft)
14.05.2021 10:05 14,3 C 64 % 1009,6 hPa 0,0 mm W-NW 286 20,9 km/h (4 Bft)
14.05.2021 10:10 14,7 C 60 % 1009,6 hPa 0,0 mm W 266 20,9 km/h (4 Bft)
14.05.2021 10:15 14,8 C 61 % 1009,8 hPa 0,0 mm W-SW 256 19,3 km/h (3 Bft)
14.05.2021 10:20 14,6 C 63 % 1009,7 hPa 0,0 mm W 271 16,1 km/h (3 Bft)
14.05.2021 10:25 14,8 C 60 % 1009,6 hPa 0,0 mm W 263 16,1 km/h (3 Bft)
14.05.2021 10:30 15,5 C 61 % 1009,7 hPa 0,0 mm W 263 17,7 km/h (3 Bft)
14.05.2021 10:35 15,0 C 60 % 1009,7 hPa 0,0 mm W-SW 257 12,9 km/h (3 Bft)
14.05.2021 10:40 14,6 C 58 % 1009,7 hPa 0,0 mm W-NW 282 14,5 km/h (3 Bft)
14.05.2021 10:45 14,8 C 62 % 1009,6 hPa 0,0 mm W 266 19,3 km/h (3 Bft)
14.05.2021 10:50 15,3 C 59 % 1009,7 hPa 0,0 mm W-NW 290 12,9 km/h (3 Bft)
14.05.2021 10:55 15,9 C 57 % 1009,7 hPa 0,0 mm W 259 16,1 km/h (3 Bft)
14.05.2021 11:00 16,4 C 57 % 1009,7 hPa 0,0 mm W 267 16,1 km/h (3 Bft)
14.05.2021 11:05 16,1 C 57 % 1009,7 hPa 0,0 mm W-NW 284 11,3 km/h (2 Bft)
14.05.2021 11:10 15,3 C 58 % 1009,7 hPa 0,0 mm W 270 11,3 km/h (2 Bft)
14.05.2021 11:15 15,9 C 60 % 1009,7 hPa 0,0 mm W 277 12,9 km/h (3 Bft)
14.05.2021 11:20 15,1 C 61 % 1009,7 hPa 0,0 mm W-SW 256 9,7 km/h (2 Bft)
14.05.2021 11:25 15,5 C 59 % 1009,7 hPa 0,0 mm W 261 11,3 km/h (2 Bft)
14.05.2021 11:30 16,2 C 56 % 1009,7 hPa 0,0 mm W-SW 257 22,5 km/h (4 Bft)
14.05.2021 11:35 16,6 C 56 % 1009,6 hPa 0,0 mm W 277 11,3 km/h (2 Bft)
14.05.2021 11:40 16,0 C 54 % 1009,6 hPa 0,0 mm W 266 9,7 km/h (2 Bft)
14.05.2021 11:45 15,3 C 52 % 1009,6 hPa 0,0 mm W 276 17,7 km/h (3 Bft)
14.05.2021 11:50 15,1 C 55 % 1009,5 hPa 0,0 mm W-SW 253 12,9 km/h (3 Bft)
14.05.2021 11:55 14,8 C 54 % 1009,5 hPa 0,0 mm W 275 19,3 km/h (3 Bft)
14.05.2021 12:00 14,7 C 55 % 1009,5 hPa 0,0 mm W 281 14,5 km/h (3 Bft)
14.05.2021 12:05 14,7 C 55 % 1009,5 hPa 0,0 mm W-NW 294 19,3 km/h (3 Bft)
14.05.2021 12:10 15,1 C 56 % 1009,4 hPa 0,0 mm W 278 12,9 km/h (3 Bft)
14.05.2021 12:15 14,9 C 53 % 1009,4 hPa 0,0 mm W-SW 250 16,1 km/h (3 Bft)
14.05.2021 12:20 15,0 C 56 % 1009,4 hPa 0,0 mm W 262 17,7 km/h (3 Bft)
14.05.2021 12:25 14,9 C 52 % 1009,5 hPa 0,0 mm W-NW 288 20,9 km/h (4 Bft)
14.05.2021 12:30 15,6 C 53 % 1009,4 hPa 0,0 mm W-NW 290 16,1 km/h (3 Bft)
14.05.2021 12:35 15,4 C 51 % 1009,4 hPa 0,0 mm W-NW 285 14,5 km/h (3 Bft)
14.05.2021 12:40 15,4 C 56 % 1009,3 hPa 0,0 mm N-NW 329 16,1 km/h (3 Bft)
14.05.2021 12:45 15,9 C 51 % 1009,3 hPa 0,0 mm W 267 17,7 km/h (3 Bft)
14.05.2021 12:50 15,9 C 51 % 1009,3 hPa 0,0 mm W-SW 257 11,3 km/h (2 Bft)
14.05.2021 12:55 15,9 C 50 % 1009,3 hPa 0,0 mm NW 315 12,9 km/h (3 Bft)
14.05.2021 13:00 16,3 C 51 % 1009,3 hPa 0,0 mm W 259 14,5 km/h (3 Bft)
14.05.2021 13:05 16,4 C 49 % 1009,2 hPa 0,0 mm W 266 16,1 km/h (3 Bft)
14.05.2021 13:10 16,2 C 52 % 1009,2 hPa 0,0 mm W 268 12,9 km/h (3 Bft)
14.05.2021 13:15 15,9 C 49 % 1009,2 hPa 0,0 mm W 267 14,5 km/h (3 Bft)
14.05.2021 13:20 15,3 C 51 % 1009,1 hPa 0,0 mm W-SW 256 8,0 km/h (2 Bft)
14.05.2021 13:25 15,1 C 51 % 1009,1 hPa 0,0 mm W 275 8,0 km/h (2 Bft)
14.05.2021 13:30 15,3 C 51 % 1009,1 hPa 0,0 mm W 277 12,9 km/h (3 Bft)
14.05.2021 13:35 15,6 C 56 % 1009,0 hPa 0,0 mm W 279 6,4 km/h (2 Bft)
14.05.2021 13:40 15,4 C 56 % 1009,0 hPa 0,0 mm W 267 9,7 km/h (2 Bft)
14.05.2021 13:45 15,4 C 51 % 1009,0 hPa 0,0 mm W 269 14,5 km/h (3 Bft)
14.05.2021 13:50 15,6 C 52 % 1009,0 hPa 0,0 mm W-NW 284 14,5 km/h (3 Bft)
14.05.2021 13:55 15,7 C 54 % 1009,0 hPa 0,0 mm W 280 12,9 km/h (3 Bft)
14.05.2021 14:00 15,7 C 54 % 1009,1 hPa 0,0 mm W 269 12,9 km/h (3 Bft)
14.05.2021 14:05 15,4 C 54 % 1008,9 hPa 0,0 mm W-NW 296 9,7 km/h (2 Bft)
14.05.2021 14:10 15,3 C 55 % 1009,0 hPa 0,0 mm W-NW 283 6,4 km/h (2 Bft)
14.05.2021 14:15 15,3 C 52 % 1008,9 hPa 0,0 mm W 275 8,0 km/h (2 Bft)
14.05.2021 14:20 15,3 C 56 % 1008,9 hPa 0,0 mm W 275 3,2 km/h (1 Bft)
14.05.2021 14:25 15,6 C 55 % 1008,9 hPa 0,0 mm W 272 6,4 km/h (2 Bft)
14.05.2021 14:30 15,3 C 59 % 1008,8 hPa 0,0 mm W 272 3,2 km/h (1 Bft)
14.05.2021 14:35 15,7 C 54 % 1008,9 hPa 0,0 mm NO 39 16,1 km/h (3 Bft)
14.05.2021 14:40 15,5 C 58 % 1008,8 hPa 0,0 mm W-SW 253 8,0 km/h (2 Bft)
14.05.2021 14:45 16,0 C 53 % 1008,8 hPa 0,0 mm W 261 11,3 km/h (2 Bft)
14.05.2021 14:50 16,4 C 53 % 1008,8 hPa 0,0 mm W 263 17,7 km/h (3 Bft)
14.05.2021 14:55 16,9 C 50 % 1008,8 hPa 0,0 mm W-NW 288 16,1 km/h (3 Bft)
14.05.2021 15:00 17,2 C 48 % 1008,8 hPa 0,0 mm W 262 17,7 km/h (3 Bft)
14.05.2021 15:05 16,7 C 50 % 1008,7 hPa 0,0 mm W-NW 288 14,5 km/h (3 Bft)
14.05.2021 15:10 16,5 C 51 % 1008,8 hPa 0,0 mm W 269 14,5 km/h (3 Bft)
14.05.2021 15:15 16,7 C 51 % 1008,7 hPa 0,0 mm W 265 14,5 km/h (3 Bft)
14.05.2021 15:20 16,6 C 49 % 1008,8 hPa 0,0 mm W-SW 249 12,9 km/h (3 Bft)
14.05.2021 15:25 16,3 C 53 % 1008,8 hPa 0,0 mm W-NW 296 11,3 km/h (2 Bft)
14.05.2021 15:30 17,3 C 52 % 1008,8 hPa 0,0 mm W 263 9,7 km/h (2 Bft)
14.05.2021 15:35 16,8 C 47 % 1008,8 hPa 0,0 mm W 281 16,1 km/h (3 Bft)
14.05.2021 15:40 16,4 C 51 % 1008,7 hPa 0,0 mm W-SW 250 12,9 km/h (3 Bft)
14.05.2021 15:45 16,3 C 52 % 1008,7 hPa 0,0 mm W 261 12,9 km/h (3 Bft)
14.05.2021 15:50 16,2 C 54 % 1008,7 hPa 0,0 mm W 274 11,3 km/h (2 Bft)
14.05.2021 15:55 16,3 C 56 % 1008,7 hPa 0,0 mm W-NW 296 4,8 km/h (1 Bft)
14.05.2021 16:00 16,1 C 51 % 1008,6 hPa 0,0 mm W 262 12,9 km/h (3 Bft)
14.05.2021 16:05 16,1 C 54 % 1008,6 hPa 0,0 mm W 269 11,3 km/h (2 Bft)
14.05.2021 16:10 16,0 C 51 % 1008,6 hPa 0,0 mm W 273 8,0 km/h (2 Bft)
14.05.2021 16:15 15,7 C 57 % 1008,6 hPa 0,0 mm W 273 4,8 km/h (1 Bft)
14.05.2021 16:20 15,8 C 58 % 1008,5 hPa 0,0 mm W 273 4,8 km/h (1 Bft)
14.05.2021 16:25 15,9 C 56 % 1008,4 hPa 0,0 mm W-NW 285 8,0 km/h (2 Bft)
14.05.2021 16:30 15,9 C 52 % 1008,4 hPa 0,0 mm W-SW 251 6,4 km/h (2 Bft)
14.05.2021 16:35 16,2 C 50 % 1008,4 hPa 0,0 mm W 265 9,7 km/h (2 Bft)
14.05.2021 16:40 16,1 C 58 % 1008,4 hPa 0,0 mm W 270 4,8 km/h (1 Bft)
14.05.2021 16:45 16,2 C 58 % 1008,4 hPa 0,0 mm W 275 6,4 km/h (2 Bft)
14.05.2021 16:50 16,4 C 55 % 1008,5 hPa 0,0 mm W 275 6,4 km/h (2 Bft)
14.05.2021 16:55 16,0 C 54 % 1008,4 hPa 0,0 mm W 260 8,0 km/h (2 Bft)
14.05.2021 17:00 15,6 C 53 % 1008,4 hPa 0,0 mm W 260 3,2 km/h (1 Bft)
14.05.2021 17:05 15,2 C 60 % 1008,4 hPa 0,0 mm W 260 1,6 km/h (1 Bft)
14.05.2021 17:10 15,7 C 52 % 1008,3 hPa 0,0 mm W 272 9,7 km/h (2 Bft)
14.05.2021 17:15 15,9 C 54 % 1008,3 hPa 0,0 mm W 270 8,0 km/h (2 Bft)
14.05.2021 17:20 15,9 C 55 % 1008,3 hPa 0,0 mm W 273 6,4 km/h (2 Bft)
14.05.2021 17:25 16,0 C 57 % 1008,3 hPa 0,0 mm W-NW 283 8,0 km/h (2 Bft)
14.05.2021 17:30 16,1 C 54 % 1008,3 hPa 0,0 mm W 268 8,0 km/h (2 Bft)
14.05.2021 17:35 16,0 C 59 % 1008,2 hPa 0,0 mm W 268 4,8 km/h (1 Bft)
14.05.2021 17:40 15,8 C 55 % 1008,2 hPa 0,0 mm W 268 1,6 km/h (1 Bft)
14.05.2021 17:45 15,7 C 55 % 1008,3 hPa 0,0 mm W 274 9,7 km/h (2 Bft)
14.05.2021 17:50 15,9 C 55 % 1008,2 hPa 0,0 mm W 274 6,4 km/h (2 Bft)
14.05.2021 17:55 15,7 C 55 % 1008,2 hPa 0,0 mm W-SW 247 6,4 km/h (2 Bft)
14.05.2021 18:00 15,8 C 56 % 1008,2 hPa 0,0 mm W-SW 247 6,4 km/h (2 Bft)
14.05.2021 18:05 15,4 C 54 % 1008,2 hPa 0,0 mm N 5 4,8 km/h (1 Bft)
14.05.2021 18:10 15,2 C 53 % 1008,2 hPa 0,0 mm N 5 3,2 km/h (1 Bft)
14.05.2021 18:15 15,1 C 56 % 1008,2 hPa 0,0 mm N 5 1,6 km/h (1 Bft)
14.05.2021 18:20 14,9 C 63 % 1008,1 hPa 0,0 mm N 5 0,0 km/h (0 Bft)
14.05.2021 18:25 14,9 C 57 % 1008,0 hPa 0,0 mm O-SO 107 3,2 km/h (1 Bft)
14.05.2021 18:30 15,3 C 59 % 1008,0 hPa 0,0 mm W-NW 288 4,8 km/h (1 Bft)
14.05.2021 18:35 15,4 C 60 % 1008,0 hPa 0,0 mm W-NW 288 1,6 km/h (1 Bft)
14.05.2021 18:40 15,4 C 60 % 1008,1 hPa 0,0 mm W-NW 288 6,4 km/h (2 Bft)
14.05.2021 18:45 15,3 C 57 % 1008,1 hPa 0,0 mm S-SW 204 3,2 km/h (1 Bft)
14.05.2021 18:50 15,1 C 61 % 1008,1 hPa 0,0 mm S-SO 158 3,2 km/h (1 Bft)
14.05.2021 18:55 14,8 C 64 % 1008,1 hPa 0,0 mm S-SO 158 1,6 km/h (1 Bft)
14.05.2021 19:00 14,7 C 60 % 1008,1 hPa 0,0 mm S-SO 158 3,2 km/h (1 Bft)
14.05.2021 19:05 14,6 C 59 % 1008,2 hPa 0,0 mm S-SO 158 1,6 km/h (1 Bft)
14.05.2021 19:10 14,7 C 60 % 1008,2 hPa 0,0 mm S-SO 158 1,6 km/h (1 Bft)
14.05.2021 19:15 14,7 C 63 % 1008,1 hPa 0,0 mm S-SO 159 1,6 km/h (1 Bft)
14.05.2021 19:20 14,8 C 65 % 1008,1 hPa 0,0 mm S-SO 158 1,6 km/h (1 Bft)
14.05.2021 19:25 14,8 C 66 % 1008,2 hPa 0,0 mm S-SO 158 0,0 km/h (0 Bft)
14.05.2021 19:30 14,7 C 66 % 1008,2 hPa 0,0 mm S-SO 158 0,0 km/h (0 Bft)
14.05.2021 19:35 14,5 C 66 % 1008,2 hPa 0,0 mm S-SO 158 1,6 km/h (1 Bft)
14.05.2021 19:40 14,3 C 66 % 1008,3 hPa 0,0 mm S-SO 159 0,0 km/h (0 Bft)
14.05.2021 19:45 14,1 C 67 % 1008,4 hPa 0,0 mm S-SO 158 0,0 km/h (0 Bft)
14.05.2021 19:50 13,9 C 67 % 1008,5 hPa 0,0 mm S-SO 158 0,0 km/h (0 Bft)
14.05.2021 19:55 13,8 C 67 % 1008,4 hPa 0,0 mm S-SO 158 0,0 km/h (0 Bft)
14.05.2021 20:00 13,7 C 67 % 1008,5 hPa 0,0 mm S-SO 158 0,0 km/h (0 Bft)
14.05.2021 20:05 13,5 C 67 % 1008,4 hPa 0,0 mm S-SO 158 0,0 km/h (0 Bft)
14.05.2021 20:10 13,4 C 68 % 1008,5 hPa 0,0 mm S-SO 158 0,0 km/h (0 Bft)
14.05.2021 20:15 13,2 C 68 % 1008,5 hPa 0,0 mm S-SO 158 1,6 km/h (1 Bft)
14.05.2021 20:20 13,1 C 69 % 1008,5 hPa 0,0 mm S-SO 159 0,0 km/h (0 Bft)
14.05.2021 20:25 13,0 C 70 % 1008,4 hPa 0,0 mm S-SO 158 0,0 km/h (0 Bft)
14.05.2021 20:30 12,8 C 70 % 1008,4 hPa 0,0 mm S-SO 158 0,0 km/h (0 Bft)
14.05.2021 20:35 12,7 C 71 % 1008,5 hPa 0,0 mm S-SO 158 0,0 km/h (0 Bft)
14.05.2021 20:40 12,5 C 71 % 1008,5 hPa 0,0 mm S-SO 158 0,0 km/h (0 Bft)
14.05.2021 20:45 12,3 C 71 % 1008,5 hPa 0,0 mm S-SO 158 0,0 km/h (0 Bft)
14.05.2021 20:50 12,1 C 72 % 1008,6 hPa 0,0 mm S-SO 158 0,0 km/h (0 Bft)
14.05.2021 20:55 11,8 C 72 % 1008,7 hPa 0,0 mm S-SO 158 0,0 km/h (0 Bft)
14.05.2021 21:00 11,6 C 72 % 1008,7 hPa 0,0 mm S-SO 158 0,0 km/h (0 Bft)
14.05.2021 21:05 11,4 C 73 % 1008,8 hPa 0,0 mm W-SW 239 4,8 km/h (1 Bft)
14.05.2021 21:10 11,2 C 73 % 1008,8 hPa 0,0 mm W-SW 248 4,8 km/h (1 Bft)
14.05.2021 21:15 11,0 C 74 % 1008,9 hPa 0,0 mm W-SW 248 1,6 km/h (1 Bft)
14.05.2021 21:20 10,7 C 74 % 1009,1 hPa 0,0 mm W-SW 253 6,4 km/h (2 Bft)
14.05.2021 21:25 10,6 C 75 % 1009,1 hPa 0,0 mm W-SW 254 4,8 km/h (1 Bft)
14.05.2021 21:30 10,4 C 75 % 1009,1 hPa 0,0 mm W-SW 254 3,2 km/h (1 Bft)
14.05.2021 21:35 10,3 C 76 % 1009,2 hPa 0,0 mm W-SW 254 0,0 km/h (0 Bft)
14.05.2021 21:40 10,1 C 76 % 1009,2 hPa 0,0 mm W-SW 254 3,2 km/h (1 Bft)
14.05.2021 21:45 10,0 C 76 % 1009,3 hPa 0,0 mm W-SW 254 4,8 km/h (1 Bft)
14.05.2021 21:50 9,8 C 77 % 1009,3 hPa 0,0 mm W-SW 254 4,8 km/h (1 Bft)
14.05.2021 21:55 9,8 C 77 % 1009,4 hPa 0,0 mm W-SW 254 4,8 km/h (1 Bft)
14.05.2021 22:00 9,7 C 78 % 1009,5 hPa 0,0 mm W-SW 254 4,8 km/h (1 Bft)
14.05.2021 22:05 9,6 C 79 % 1009,5 hPa 0,0 mm W-SW 254 4,8 km/h (1 Bft)
14.05.2021 22:10 9,6 C 79 % 1009,6 hPa 0,0 mm W-SW 254 3,2 km/h (1 Bft)
14.05.2021 22:15 9,4 C 80 % 1009,6 hPa 0,0 mm W-SW 254 3,2 km/h (1 Bft)
14.05.2021 22:20 9,4 C 80 % 1009,6 hPa 0,0 mm W-SW 254 4,8 km/h (1 Bft)
14.05.2021 22:25 9,3 C 80 % 1009,6 hPa 0,0 mm W-SW 254 4,8 km/h (1 Bft)
14.05.2021 22:30 9,3 C 81 % 1009,7 hPa 0,0 mm W-SW 254 4,8 km/h (1 Bft)
14.05.2021 22:35 9,2 C 81 % 1009,7 hPa 0,0 mm W-SW 254 4,8 km/h (1 Bft)
14.05.2021 22:40 9,2 C 81 % 1009,7 hPa 0,0 mm W-SW 254 1,6 km/h (1 Bft)
14.05.2021 22:45 9,1 C 81 % 1009,8 hPa 0,0 mm W-SW 254 4,8 km/h (1 Bft)
14.05.2021 22:50 9,1 C 81 % 1009,8 hPa 0,0 mm W-SW 254 4,8 km/h (1 Bft)
14.05.2021 22:55 9,1 C 82 % 1009,8 hPa 0,0 mm W-SW 254 4,8 km/h (1 Bft)
14.05.2021 23:00 9,0 C 82 % 1009,7 hPa 0,0 mm W-SW 254 4,8 km/h (1 Bft)
14.05.2021 23:05 9,0 C 82 % 1009,7 hPa 0,0 mm W-SW 254 4,8 km/h (1 Bft)
14.05.2021 23:10 8,9 C 82 % 1009,8 hPa 0,0 mm W-SW 254 3,2 km/h (1 Bft)
14.05.2021 23:15 8,9 C 82 % 1009,8 hPa 0,0 mm W-SW 254 4,8 km/h (1 Bft)
14.05.2021 23:20 8,9 C 83 % 1009,8 hPa 0,0 mm W-SW 254 4,8 km/h (1 Bft)
14.05.2021 23:25 8,9 C 83 % 1009,8 hPa 0,0 mm W-SW 254 3,2 km/h (1 Bft)
14.05.2021 23:30 8,9 C 83 % 1009,8 hPa 0,0 mm W-SW 254 4,8 km/h (1 Bft)
14.05.2021 23:35 8,9 C 83 % 1009,9 hPa 0,0 mm W-SW 254 4,8 km/h (1 Bft)
14.05.2021 23:40 8,9 C 83 % 1009,8 hPa 0,0 mm W-SW 254 4,8 km/h (1 Bft)
14.05.2021 23:45 8,9 C 83 % 1009,8 hPa 0,0 mm W-SW 254 1,6 km/h (1 Bft)
14.05.2021 23:50 8,8 C 83 % 1009,9 hPa 0,0 mm W-SW 254 4,8 km/h (1 Bft)
14.05.2021 23:55 8,8 C 84 % 1009,9 hPa 0,0 mm W-SW 254 0,0 km/h (0 Bft)
_ Min-Zeit 05:10 15:35 18:25 - - - 07:00
Minimum _ 7,6 C 47 % 1008,0 hPa - - - 0,0 km/h (0 Bft)
_ Max-Zeit 15:30 01:55 23:35 00:20 - - 11:30
Maximum _ 17,3 C 92 % 1009,9 hPa 0,2 mm - - 22,5 km/h
W-SW (4 Bft)
Durchschnitt _ 11,9 C 73 % 1009,0 hPa #0,8 mm W - 8,4 km/h (2 Bft)